Madison, SD

7:05 AM CST on November 17, 2019 (GMT -0600)
Madison Municipal

Weather History for KMDS - September, 2019

Change the Weather History Date:

Sunday, September 29, 2019

  Actual Average Record
Temperature  
Mean Temperature 58 °F -  
Max Temperature 69 °F 68 °F 78 °F (2013)
Min Temperature 48 °F 43 °F 32 °F (2018)
Degree Days  
Heating Degree Days 7    
Growing Degree Days 8 (Base 50)    
Moisture  
Dew Point 57 °F    
Average Humidity 100    
Maximum Humidity 100    
Minimum Humidity 100    
Precipitation  
Precipitation 0.01 in - - ()
Sea Level Pressure  
Sea Level Pressure 29.90 in    
Wind  
Wind Speed 15 mph ()    
Max Wind Speed 23 mph    
Max Gust Speed 32 mph    
Visibility 6.8 miles    
Events Fog , Rain    
Averages and records for this station are not official NWS values.
T = Trace of Precipitation, MM = Missing Value Source: Averaged Metar Reports

Daily Weather History Graph

Daily Weather History Graph

Search for Another Location

Airport or City:

Astronomy

Sep. 29, 2019 Rise Set
Actual Time 7:23 AM CDT 7:13 PM CDT
Civil Twilight 6:54 AM CDT 7:41 PM CDT
Nautical Twilight 6:21 AM CDT 8:15 PM CDT
Astronomical Twilight 5:47 AM CDT 8:49 PM CDT
Moon 8:15 AM CDT (9/29) 8:12 PM CDT (9/29)
Length of Visible Light 12h 47m
Length of Day
11h 49m
New Moon, 1% of the Moon is Illuminated
Sep 29
New Moon
Oct 5
First Quarter
Oct 13
Full
Oct 21
Last Quarter
Oct 27
New

Hourly Weather History & Observations

Time (CDT) Temp. Dew Point Humidity Pressure Visibility Wind Dir Wind Speed Gust Speed Precip Events Conditions
12:00 AM 48.2 °F 48.2 °F 100% 30.07 in 10.0 mi East 17.3 mph - 0.04 in   Overcast
12:15 AM 50.0 °F 50.0 °F 100% 30.06 in 10.0 mi East 16.1 mph 25.3 mph N/A   Overcast
12:20 AM 50.0 °F 50.0 °F 100% 30.06 in 10.0 mi East 15.0 mph 23.0 mph N/A   Overcast
12:35 AM 50.0 °F 50.0 °F 100% 30.05 in 10.0 mi East 15.0 mph 21.9 mph N/A   Overcast
12:40 AM 50.0 °F 50.0 °F 100% 30.05 in 10.0 mi East 13.8 mph 21.9 mph N/A   Overcast
12:55 AM 50.0 °F 50.0 °F 100% 30.05 in 10.0 mi East 18.4 mph 25.3 mph N/A   Overcast
1:00 AM 50.0 °F 50.0 °F 100% 30.05 in 10.0 mi East 15.0 mph 25.3 mph N/A   Overcast
1:15 AM 50.0 °F 50.0 °F 100% 30.05 in 10.0 mi East 16.1 mph 24.2 mph N/A   Overcast
1:35 AM 50.0 °F 50.0 °F 100% 30.05 in 10.0 mi East 16.1 mph 19.6 mph N/A   Overcast
1:40 AM 50.0 °F 50.0 °F 100% 30.05 in 10.0 mi East 13.8 mph 19.6 mph N/A   Overcast
1:55 AM 50.0 °F 50.0 °F 100% 30.05 in 10.0 mi East 15.0 mph 20.7 mph N/A   Overcast
2:15 AM 50.0 °F 50.0 °F 100% 30.05 in 2.5 mi East 15.0 mph 21.9 mph N/A   Overcast
2:35 AM 50.0 °F 50.0 °F 100% 30.04 in 3.0 mi East 15.0 mph 20.7 mph N/A   Overcast
2:55 AM 50.0 °F 50.0 °F 100% 30.03 in 3.0 mi East 13.8 mph 23.0 mph N/A   Overcast
3:00 AM 50.0 °F 50.0 °F 100% 30.03 in 3.0 mi East 12.7 mph - N/A   Overcast
3:15 AM 50.0 °F 50.0 °F 100% 30.02 in 3.0 mi East 13.8 mph - N/A   Overcast
3:35 AM 50.0 °F 50.0 °F 100% 30.02 in 4.0 mi East 15.0 mph - N/A   Overcast
3:55 AM 50.0 °F 50.0 °F 100% 30.01 in 3.0 mi East 15.0 mph - N/A   Overcast
4:00 AM 50.0 °F 50.0 °F 100% 30.01 in 3.0 mi East 15.0 mph 18.4 mph N/A   Overcast
4:15 AM 50.0 °F 50.0 °F 100% 30.01 in 5.0 mi East 15.0 mph - N/A   Overcast
4:40 AM 50.0 °F 50.0 °F 100% 30.01 in 10.0 mi ESE 13.8 mph 18.4 mph N/A   Overcast
4:55 AM 50.0 °F 50.0 °F 100% 30.00 in 5.0 mi ESE 13.8 mph - N/A   Overcast
5:15 AM 50.0 °F 50.0 °F 100% 30.00 in 4.0 mi ESE 11.5 mph - N/A   Overcast
5:35 AM 50.0 °F 50.0 °F 100% 29.99 in 7.0 mi ESE 13.8 mph - N/A   Overcast
5:40 AM 50.0 °F 50.0 °F 100% 29.98 in 7.0 mi ESE 12.7 mph - N/A   Overcast
5:55 AM 50.0 °F 50.0 °F 100% 29.98 in 5.0 mi ESE 13.8 mph - N/A   Overcast
6:00 AM 51.8 °F 51.8 °F 100% 29.98 in 5.0 mi ESE 12.7 mph - N/A   Overcast
6:15 AM 51.8 °F 51.8 °F 100% 29.98 in 8.0 mi ESE 13.8 mph - N/A   Overcast
6:20 AM 51.8 °F 51.8 °F 100% 29.98 in 10.0 mi ESE 12.7 mph - N/A   Overcast
6:35 AM 51.8 °F 51.8 °F 100% 29.97 in 10.0 mi East 15.0 mph 19.6 mph N/A   Overcast
6:40 AM 51.8 °F 51.8 °F 100% 29.97 in 8.0 mi ESE 13.8 mph 19.6 mph N/A   Overcast
6:55 AM 51.8 °F 51.8 °F 100% 29.97 in 4.0 mi ESE 15.0 mph 19.6 mph N/A   Overcast
7:00 AM 51.8 °F 51.8 °F 100% 29.97 in 3.0 mi East 15.0 mph 19.6 mph N/A   Overcast
7:15 AM 51.8 °F 51.8 °F 100% 29.97 in 2.5 mi ESE 13.8 mph 18.4 mph N/A   Overcast
7:20 AM 51.8 °F 51.8 °F 100% 29.97 in 2.0 mi ESE 15.0 mph - N/A   Overcast
7:35 AM 53.6 °F 53.6 °F 100% 29.97 in 1.8 mi East 13.8 mph 19.6 mph N/A   Overcast
7:40 AM 53.6 °F 53.6 °F 100% 29.97 in 1.5 mi ESE 15.0 mph 19.6 mph N/A   Overcast
7:55 AM 53.6 °F 53.6 °F 100% 29.97 in 1.0 mi ESE 12.7 mph 18.4 mph N/A   Overcast
8:00 AM 53.6 °F 53.6 °F 100% 29.97 in 1.2 mi ESE 11.5 mph 18.4 mph N/A   Overcast
8:15 AM 53.6 °F 53.6 °F 100% 29.97 in 1.2 mi ESE 15.0 mph 19.6 mph N/A   Overcast
8:20 AM 53.6 °F 53.6 °F 100% 29.97 in 1.2 mi ESE 13.8 mph 18.4 mph N/A   Overcast
8:35 AM 53.6 °F 53.6 °F 100% 29.97 in 0.8 mi ESE 13.8 mph 20.7 mph N/A   Overcast
8:40 AM 53.6 °F 53.6 °F 100% 29.96 in 0.8 mi ESE 16.1 mph 20.7 mph N/A   Overcast
8:55 AM 53.6 °F 53.6 °F 100% 29.96 in 0.5 mi ESE 15.0 mph 21.9 mph N/A Fog Fog
9:00 AM 53.6 °F 53.6 °F 100% 29.97 in 0.5 mi ESE 12.7 mph 21.9 mph N/A Fog Fog
9:15 AM 55.4 °F 55.4 °F 100% 29.96 in 0.5 mi ESE 15.0 mph 20.7 mph N/A Fog Fog
9:35 AM 55.4 °F 55.4 °F 100% 29.96 in 1.2 mi ESE 13.8 mph 23.0 mph N/A   Overcast
9:40 AM 55.4 °F 55.4 °F 100% 29.95 in 1.5 mi ESE 16.1 mph 23.0 mph N/A   Overcast
9:55 AM 55.4 °F 55.4 °F 100% 29.95 in 1.8 mi ESE 13.8 mph 23.0 mph N/A   Overcast
10:00 AM 55.4 °F 55.4 °F 100% 29.94 in 2.0 mi ESE 15.0 mph 23.0 mph N/A   Overcast
10:15 AM 55.4 °F 55.4 °F 100% 29.94 in 1.8 mi ESE 17.3 mph 24.2 mph N/A   Overcast
10:35 AM 55.4 °F 55.4 °F 100% 29.93 in 1.0 mi SE 15.0 mph 24.2 mph N/A   Overcast
10:40 AM 57.2 °F 57.2 °F 100% 29.93 in 0.8 mi ESE 17.3 mph 24.2 mph N/A   Overcast
10:55 AM 57.2 °F 57.2 °F 100% 29.93 in 0.8 mi SE 17.3 mph 25.3 mph N/A   Overcast
11:15 AM 57.2 °F 57.2 °F 100% 29.92 in 0.8 mi SE 21.9 mph 32.2 mph N/A   Overcast
11:20 AM 57.2 °F 57.2 °F 100% 29.92 in 0.8 mi SE 17.3 mph 32.2 mph N/A   Overcast
11:35 AM 57.2 °F 57.2 °F 100% 29.92 in 1.2 mi SE 19.6 mph 28.8 mph N/A   Overcast
11:55 AM 57.2 °F 57.2 °F 100% 29.91 in 10.0 mi SE 20.7 mph 27.6 mph N/A   Mostly Cloudy
12:00 PM 57.2 °F 57.2 °F 100% 29.91 in 10.0 mi SE 13.8 mph 27.6 mph N/A   Mostly Cloudy
12:15 PM 57.2 °F 57.2 °F 100% 29.90 in 2.5 mi SE 18.4 mph 27.6 mph N/A   Mostly Cloudy
12:20 PM 57.2 °F 57.2 °F 100% 29.90 in 1.8 mi SE 17.3 mph 27.6 mph N/A   Overcast
12:35 PM 57.2 °F 57.2 °F 100% 29.91 in 2.5 mi SE 17.3 mph 26.5 mph N/A   Overcast
12:55 PM 57.2 °F 57.2 °F 100% 29.89 in 2.5 mi SE 17.3 mph 27.6 mph N/A   Overcast
1:00 PM 59.0 °F 59.0 °F 100% 29.89 in 2.5 mi SE 20.7 mph 27.6 mph N/A   Overcast
1:15 PM 59.0 °F 59.0 °F 100% 29.88 in 6.0 mi SE 17.3 mph 24.2 mph N/A   Overcast
1:35 PM 59.0 °F 59.0 °F 100% 29.87 in 10.0 mi SE 21.9 mph 27.6 mph N/A   Overcast
1:55 PM 59.0 °F 59.0 °F 100% 29.85 in 10.0 mi SE 17.3 mph 26.5 mph 0.01 in   Overcast
2:15 PM 59.0 °F 59.0 °F 100% 29.85 in 10.0 mi SE 20.7 mph 25.3 mph N/A   Overcast
2:20 PM 59.0 °F 59.0 °F 100% 29.85 in 10.0 mi SE 19.6 mph 27.6 mph N/A   Overcast
2:35 PM 59.0 °F 59.0 °F 100% 29.85 in 10.0 mi SE 18.4 mph 26.5 mph N/A   Overcast
2:40 PM 59.0 °F 59.0 °F 100% 29.85 in 10.0 mi SE 18.4 mph 31.1 mph N/A   Overcast
2:55 PM 59.0 °F 59.0 °F 100% 29.85 in 10.0 mi SE 19.6 mph 32.2 mph N/A   Overcast
3:15 PM 59.0 °F 59.0 °F 100% 29.84 in 10.0 mi SE 16.1 mph 28.8 mph N/A   Overcast
3:20 PM 59.0 °F 59.0 °F 100% 29.84 in 10.0 mi SE 16.1 mph 26.5 mph N/A   Overcast
3:35 PM 59.0 °F 59.0 °F 100% 29.83 in 10.0 mi SE 16.1 mph 26.5 mph N/A   Overcast
3:55 PM 59.0 °F 59.0 °F 100% 29.82 in 10.0 mi SE 18.4 mph 23.0 mph N/A   Overcast
4:15 PM 60.8 °F 60.8 °F 100% 29.81 in 10.0 mi SE 16.1 mph 20.7 mph N/A   Overcast
4:35 PM 62.6 °F 62.6 °F 100% 29.80 in 10.0 mi SE 11.5 mph - N/A   Overcast
4:40 PM 62.6 °F 62.6 °F 100% 29.80 in 10.0 mi SE 12.7 mph - N/A   Overcast
4:55 PM 64.4 °F 64.4 °F 100% 29.80 in 10.0 mi SE 17.3 mph 23.0 mph N/A   Overcast
5:15 PM 64.4 °F 64.4 °F 100% 29.80 in 10.0 mi SE 18.4 mph 27.6 mph N/A   Overcast
5:20 PM 64.4 °F 64.4 °F 100% 29.80 in 10.0 mi SE 13.8 mph 27.6 mph N/A   Overcast
5:35 PM 64.4 °F 64.4 °F 100% 29.80 in 10.0 mi SSE 16.1 mph 21.9 mph N/A   Overcast
5:40 PM 64.4 °F 64.4 °F 100% 29.80 in 10.0 mi SE 19.6 mph 25.3 mph N/A   Overcast
5:55 PM 64.4 °F 64.4 °F 100% 29.81 in 10.0 mi SSE 13.8 mph 23.0 mph N/A   Overcast
6:15 PM 64.4 °F 64.4 °F 100% 29.81 in 10.0 mi SE 13.8 mph 19.6 mph N/A   Overcast
6:35 PM 64.4 °F 64.4 °F 100% 29.80 in 10.0 mi SE 15.0 mph 19.6 mph N/A   Overcast
6:40 PM 64.4 °F 64.4 °F 100% 29.80 in 10.0 mi SE 13.8 mph 19.6 mph N/A   Overcast
6:55 PM 64.4 °F 64.4 °F 100% 29.79 in 10.0 mi SE 12.7 mph 20.7 mph N/A   Overcast
7:15 PM 66.2 °F 66.2 °F 100% 29.78 in 10.0 mi SSE 15.0 mph 24.2 mph N/A   Overcast
7:20 PM 66.2 °F 66.2 °F 100% 29.78 in 10.0 mi SE 17.3 mph 24.2 mph N/A   Overcast
7:35 PM 66.2 °F 66.2 °F 100% 29.78 in 10.0 mi SE 16.1 mph 21.9 mph N/A   Overcast
7:55 PM 66.2 °F 66.2 °F 100% 29.78 in 10.0 mi SE 15.0 mph 21.9 mph N/A   Overcast
8:15 PM 66.2 °F 66.2 °F 100% 29.78 in 10.0 mi SSE 15.0 mph 23.0 mph N/A   Overcast
8:20 PM 66.2 °F 66.2 °F 100% 29.78 in 10.0 mi SE 15.0 mph 23.0 mph N/A   Overcast
8:35 PM 66.2 °F 66.2 °F 100% 29.78 in 10.0 mi SE 15.0 mph 23.0 mph N/A   Overcast
8:40 PM 66.2 °F 66.2 °F 100% 29.78 in 10.0 mi SSE 13.8 mph 23.0 mph N/A Rain Light Rain
9:15 PM 66.2 °F 66.2 °F 100% 29.78 in 10.0 mi SE 15.0 mph 19.6 mph N/A   Overcast
9:20 PM 66.2 °F 66.2 °F 100% 29.78 in 10.0 mi SSE 12.7 mph 19.6 mph N/A   Overcast
9:35 PM 66.2 °F 66.2 °F 100% 29.77 in 10.0 mi SSE 15.0 mph - N/A   Overcast
9:40 PM 68.0 °F 68.0 °F 100% 29.77 in 10.0 mi SSE 16.1 mph 20.7 mph N/A   Overcast
9:55 PM 68.0 °F 68.0 °F 100% 29.77 in 10.0 mi SSE 18.4 mph 25.3 mph N/A   Overcast
10:15 PM 68.0 °F 68.0 °F 100% 29.76 in 10.0 mi SSE 21.9 mph 29.9 mph N/A   Overcast
10:20 PM 68.0 °F 68.0 °F 100% 29.76 in 10.0 mi SSE 19.6 mph 29.9 mph N/A   Overcast
10:35 PM 68.0 °F 68.0 °F 100% 29.76 in 10.0 mi SSE 20.7 mph 28.8 mph N/A   Overcast
10:55 PM 68.0 °F 68.0 °F 100% 29.75 in 10.0 mi SSE 17.3 mph 28.8 mph N/A   Overcast
11:15 PM 68.0 °F 68.0 °F 100% 29.74 in 10.0 mi SSE 19.6 mph 29.9 mph N/A   Overcast
11:20 PM 68.0 °F 68.0 °F 100% 29.74 in 10.0 mi SSE 20.7 mph 29.9 mph N/A   Overcast
11:35 PM 68.0 °F 68.0 °F 100% 29.73 in 10.0 mi South 18.4 mph 26.5 mph N/A   Overcast
11:55 PM 69.8 °F 69.8 °F 100% 29.72 in 10.0 mi South 23.0 mph 32.2 mph N/A   Overcast